Location: B�di�
(14.6834°N, 3.1047°W)
Time: 04:46:18
(UTC+00:00)

GPS 2-18 Rocket1 - Pass Details

Date: 24 January 2020
Orbit: 460 x 517 km, 20.9° (Epoch: 19 February)

Event Time Altitude Azimuth Distance (km) Brightness Sun altitude
Rises 19:23:51 0° 278° (W) 2,470 7.9 -18.5°
Reaches altitude 10° 19:26:06 10° 272° (W) 1,603 6.8 -19.0°
Maximum altitude 19:29:36 43° 200° (SSW) 668 3.9 -19.8°
Enters shadow 19:30:52 31° 152° (SSE) 851 4.1 -20.1°
